Location: Newark
(45.4422°N, 16.2769°E)
Time: 12:30:31
(UTC+00:00)

Vanguard 1 Rocket - Visible Passes

Search period start: 16 December 2019 00:00
Search period end: 26 December 2019 00:00
Orbit: 650 x 4226 km, 34.3° (Epoch: 15 December)

Date Brightness Start Highest point End Pass type
(mag) Time Alt. Az. Time Alt. Az. Time Alt. Az.
16 Dec 10.6 16:30:26 10° SSW 16:51:05 35° SSE 17:02:51 17° E visible
16 Dec 9.8 18:59:10 10° WSW 19:19:52 51° S 19:20:09 51° S visible
16 Dec 10.9 21:31:33 10° W 21:37:26 22° WSW 21:37:26 22° WSW visible
17 Dec 11.0 15:18:56 10° S 15:37:41 27° SE 15:52:20 10° E visible
17 Dec 10.0 17:44:36 10° SW 18:06:47 47° SSE 18:12:58 36° ESE visible
17 Dec 10.2 20:16:11 10° WSW 20:30:15 43° SW 20:30:15 43° SW visible
18 Dec 10.5 16:31:02 10° SSW 16:53:18 41° SSE 17:05:46 18° E visible
18 Dec 9.8 19:00:50 10° WSW 19:22:23 54° S 19:23:03 54° S visible
18 Dec 10.8 21:33:45 10° W 21:40:21 24° WSW 21:40:21 24° WSW visible
19 Dec 11.0 15:18:51 10° SSW 15:39:42 33° SE 15:55:55 10° E visible
19 Dec 10.0 17:45:58 10° SW 18:09:09 52° SSE 18:15:51 38° ESE visible
19 Dec 10.2 20:18:12 10° W 20:33:08 44° SW 20:33:08 44° SW visible
20 Dec 10.5 16:32:01 10° SW 16:55:29 46° SSE 17:08:38 19° E visible
20 Dec 9.8 19:02:40 10° WSW 19:24:51 56° S 19:25:55 56° S visible
20 Dec 10.8 21:36:00 10° W 21:43:12 24° WSW 21:43:12 24° WSW visible
21 Dec 11.0 15:19:21 10° SSW 15:41:40 39° SSE 15:59:09 10° E visible
21 Dec 10.0 17:47:34 10° WSW 18:11:30 56° S 18:18:42 39° ESE visible
21 Dec 10.2 20:20:17 10° W 20:35:59 45° SW 20:35:59 45° SW visible
22 Dec 10.5 16:33:20 10° SW 16:57:39 51° SSE 17:11:29 19° E visible
22 Dec 9.8 19:04:36 10° WSW 19:27:16 57° S 19:28:46 56° S visible
22 Dec 10.9 21:38:18 10° W 21:46:02 24° WSW 21:46:02 24° WSW visible
23 Dec 11.0 15:20:17 10° SW 15:43:36 44° SSE 16:02:10 10° E visible
23 Dec 10.0 17:49:21 10° WSW 18:13:50 58° S 18:21:33 39° ESE visible
23 Dec 10.2 20:22:24 10° W 20:38:50 45° SW 20:38:50 45° SW visible
24 Dec 10.6 16:34:54 10° SW 16:59:49 55° SSE 17:14:20 20° E visible
24 Dec 9.9 19:06:37 10° W 19:29:38 57° S 19:31:37 55° S visible
24 Dec 10.9 21:40:42 10° W 21:48:54 24° WSW 21:48:54 24° WSW visible
25 Dec 11.0 15:21:35 10° SW 15:45:33 49° SSE 16:05:03 10° E visible
25 Dec 10.1 17:51:16 10° WSW 18:16:08 60° S 18:24:26 38° ESE visible
25 Dec 10.3 20:24:35 10° W 20:41:43 43° SW 20:41:43 43° SW visible
